User: anonymous   Login
Location: Vancouver
(49.2500°N, 123.1330°W)
Time: 13:37:13
(UTC-07:00)
Language:

Cosmos 2333 Rocket - Orbit

View from above orbital plane
View from above orbital plane
View from above satellite
View from above satellite

Ground track
Ground track

The orbit data is extracted from the following two-line orbital elements,

1 24298U 96051B   16240.67909289  .00000095  00000-0  77585-4 0  9999
2 24298  70.8410 320.7056 0019221 256.9037 102.9938 14.12426295 30378
Epoch (UTC): 27 August 2016 16:17:53
Eccentricity: 0.0019221
inclination: 70.8410°
perigee height: 837 km
apogee height: 865 km
right ascension of ascending node: 320.7056°
argument of perigee: 256.9037°
revolutions per day: 14.12426295
mean anomaly at epoch: 102.9938°
orbit number at epoch: 3037

The dashed part of the orbit path shows where the satellite is in the earth's shadow,  

DLR